Tracking 29091 objects as of 17-Jul-2024
HD Live streaming from Space Station
objects crossing your sky now

ATLAS 5 CENTAUR DEB

Track ATLAS 5 CENTAUR DEB now!


NORAD ID: 46607
Int'l Code: 2018-079CF
Perigee: 7,851.7 km
Apogee: 31,735.9 km
Inclination: 12.5 °
Period: 702.0 minutes
Semi major axis: 26164 km
RCS: Unknown
Launch date: October 17, 2018
Source: United States (US)
Launch site: AIR FORCE EASTERN TEST RANGE (AFETR)

Note: This is SATELLITE DEBRIS
Your satellite tracking list
Your tracking list is empty




NASA's NSSDC Master Catalog

Two Line Element Set (TLE):
1 46607U 18079CF  24196.40909913 -.00000091  00000-0  00000+0 0  9995
2 46607  12.4972  64.7738 4564173 280.1468  32.9169  2.05128932 36038
Source of the keplerian elements: AFSPC